When you browse on this site, cookies collect data to enhance your experience and personalize the content and advertising you see.
Visit our Privacy Policy to learn more. By continuing to use the site, you agree to this use of cookies and data.
  • In Austria
  • List of Countries
  • For 7 days
  • Water Temperature
  • Weather Map
  • News
  • Weather Widgets
  • user-avatar
    Login

    Hourly Weather Milevichi

    Today, 25 August, Sunday

    Time Temperature Precipitation Wind Pressure Humidity
    00:00 +15°C° 0 mm 0 mps 757 mmHg 74%
    01:00 +15°C° 0 mm 0 mps 757 mmHg 76%
    02:00 +14°C° 0 mm 0 mps 757 mmHg 78%
    03:00 +14°C° 0 mm 0 mps 757 mmHg 79%
    04:00 +14°C° 0 mm 0 mps 757 mmHg 80%
    05:00 +14°C° 0 mm 0 mps 757 mmHg 81%
    06:00 +16°C° 0 mm 1 mps 757 mmHg 78%
    07:00 +19°C° 0 mm 1 mps 757 mmHg 74%
    08:00 +20°C° 0 mm 1 mps 757 mmHg 70%
    09:00 +22°C° 0 mm 1 mps 757 mmHg 66%
    10:00 +23°C° 0 mm 1 mps 757 mmHg 62%
    11:00 +24°C° 0 mm 2 mps 758 mmHg 58%
    12:00 +25°C° 0 mm 2 mps 757 mmHg 56%
    13:00 +26°C° 0 mm 2 mps 757 mmHg 54%
    14:00 +26°C° 0 mm 2 mps 757 mmHg 52%
    15:00 +26°C° 0 mm 2 mps 757 mmHg 55%
    16:00 +26°C° 0 mm 2 mps 757 mmHg 57%
    17:00 +26°C° 0 mm 2 mps 757 mmHg 59%
    18:00 +24°C° 0 mm 2 mps 757 mmHg 66%
    19:00 +21°C° 0 mm 2 mps 757 mmHg 72%
    20:00 +19°C° 0 mm 2 mps 757 mmHg 78%
    21:00 +19°C° 0 mm 2 mps 757 mmHg 81%
    22:00 +18°C° 0 mm 2 mps 757 mmHg 83%
    23:00 +17°C° 0 mm 2 mps 757 mmHg 86%

    Tomorrow, 26 August, Monday

    Time Temperature Precipitation Wind Pressure Humidity
    00:00 +17°C° 0 mm 2 mps 757 mmHg 87%
    01:00 +17°C° 0 mm 2 mps 757 mmHg 89%
    02:00 +16°C° 0 mm 2 mps 757 mmHg 90%
    03:00 +16°C° 0 mm 2 mps 757 mmHg 91%
    04:00 +16°C° 0 mm 2 mps 757 mmHg 92%
    05:00 +16°C° 0 mm 2 mps 757 mmHg 92%
    06:00 +17°C° 0 mm 2 mps 757 mmHg 89%
    07:00 +18°C° 0 mm 2 mps 757 mmHg 85%
    08:00 +19°C° 0 mm 2 mps 757 mmHg 81%
    09:00 +21°C° 0 mm 3 mps 757 mmHg 75%
    10:00 +24°C° 0 mm 3 mps 757 mmHg 69%
    11:00 +25°C° 0 mm 3 mps 757 mmHg 63%
    12:00 +26°C° 0 mm 3 mps 757 mmHg 61%
    13:00 +27°C° 0 mm 3 mps 757 mmHg 58%
    14:00 +27°C° 0 mm 3 mps 756 mmHg 56%
    15:00 +27°C° 0 mm 3 mps 756 mmHg 57%
    16:00 +27°C° 0 mm 3 mps 756 mmHg 59%
    17:00 +27°C° 0 mm 2 mps 755 mmHg 61%
    18:00 +25°C° 0 mm 2 mps 755 mmHg 68%
    19:00 +23°C° 0 mm 2 mps 755 mmHg 75%
    20:00 +20°C° 0 mm 2 mps 755 mmHg 81%
    21:00 +19°C° 0 mm 2 mps 755 mmHg 84%
    22:00 +19°C° 0 mm 2 mps 756 mmHg 87%
    23:00 +18°C° 0 mm 2 mps 756 mmHg 89%

    Day after tomorrow, 27 August, Tuesday

    Time Temperature Precipitation Wind Pressure Humidity
    00:00 +18°C° 0 mm 2 mps 756 mmHg 90%
    01:00 +18°C° 0 mm 2 mps 756 mmHg 90%
    02:00 +17°C° 0 mm 2 mps 756 mmHg 91%
    03:00 +17°C° 0 mm 2 mps 756 mmHg 91%
    04:00 +17°C° 0 mm 2 mps 756 mmHg 92%
    05:00 +16°C° 0 mm 2 mps 756 mmHg 92%
    06:00 +18°C° 0 mm 2 mps 756 mmHg 88%
    07:00 +19°C° 0 mm 2 mps 756 mmHg 84%
    08:00 +20°C° 0 mm 2 mps 756 mmHg 79%
    09:00 +23°C° 0 mm 2 mps 756 mmHg 74%
    10:00 +25°C° 0 mm 2 mps 756 mmHg 68%
    11:00 +26°C° 0 mm 2 mps 756 mmHg 62%
    12:00 +27°C° 0 mm 2 mps 756 mmHg 59%
    13:00 +27°C° 0 mm 2 mps 756 mmHg 56%
    14:00 +28°C° 0 mm 2 mps 756 mmHg 52%
    15:00 +28°C° 0 mm 2 mps 756 mmHg 55%
    16:00 +27°C° 0 mm 2 mps 755 mmHg 57%
    17:00 +27°C° 0 mm 2 mps 755 mmHg 59%
    18:00 +25°C° 0 mm 2 mps 755 mmHg 65%
    19:00 +23°C° 0 mm 2 mps 755 mmHg 71%
    20:00 +20°C° 0 mm 2 mps 755 mmHg 77%
    21:00 +20°C° 0 mm 2 mps 755 mmHg 79%
    22:00 +19°C° 0 mm 2 mps 755 mmHg 80%
    23:00 +19°C° 0 mm 2 mps 755 mmHg 82%

    28 August, Wednesday

    Time Temperature Precipitation Wind Pressure Humidity
    00:00 +18°C° 0 mm 2 mps 755 mmHg 83%
    01:00 +18°C° 0 mm 2 mps 755 mmHg 85%
    02:00 +17°C° 0 mm 2 mps 755 mmHg 86%
    03:00 +17°C° 0 mm 2 mps 755 mmHg 87%
    04:00 +17°C° 0 mm 2 mps 755 mmHg 89%
    05:00 +17°C° 0 mm 2 mps 755 mmHg 90%
    06:00 +18°C° 0 mm 2 mps 755 mmHg 87%
    07:00 +19°C° 0 mm 2 mps 755 mmHg 84%
    08:00 +20°C° 0 mm 3 mps 755 mmHg 81%
    09:00 +22°C° 0 mm 3 mps 755 mmHg 75%
    10:00 +24°C° 0 mm 3 mps 755 mmHg 69%
    11:00 +26°C° 0 mm 3 mps 755 mmHg 63%
    12:00 +26°C° 0 mm 3 mps 755 mmHg 61%
    13:00 +27°C° 0 mm 3 mps 755 mmHg 59%
    14:00 +27°C° 0 mm 4 mps 755 mmHg 57%
    15:00 +27°C° 0 mm 4 mps 754 mmHg 59%
    16:00 +27°C° 0 mm 4 mps 754 mmHg 62%
    17:00 +26°C° 0 mm 4 mps 754 mmHg 64%
    18:00 +25°C° 0 mm 4 mps 754 mmHg 69%
    19:00 +22°C° 0 mm 4 mps 754 mmHg 75%
    20:00 +20°C° 0 mm 4 mps 754 mmHg 81%
    21:00 +19°C° 0 mm 4 mps 754 mmHg 79%
    22:00 +18°C° 0 mm 4 mps 754 mmHg 77%
    23:00 +18°C° 0 mm 4 mps 755 mmHg 76%

    29 August, Thursday

    Time Temperature Precipitation Wind Pressure Humidity
    00:00 +17°C° 0 mm 4 mps 755 mmHg 77%
    01:00 +17°C° 0 mm 4 mps 755 mmHg 78%
    02:00 +15°C° 0 mm 4 mps 755 mmHg 78%
    03:00 +14°C° 0 mm 4 mps 755 mmHg 80%
    04:00 +14°C° 0 mm 4 mps 755 mmHg 82%
    05:00 +14°C° 0 mm 4 mps 754 mmHg 84%
    06:00 +14°C° 0 mm 4 mps 754 mmHg 82%
    07:00 +15°C° 0 mm 4 mps 754 mmHg 80%
    08:00 +16°C° 0 mm 5 mps 754 mmHg 78%
    09:00 +19°C° 0 mm 5 mps 754 mmHg 73%
    10:00 +20°C° 0 mm 5 mps 754 mmHg 69%
    11:00 +22°C° 0 mm 5 mps 754 mmHg 64%
    12:00 +22°C° 0 mm 5 mps 754 mmHg 62%
    13:00 +23°C° 0 mm 5 mps 754 mmHg 60%
    14:00 +25°C° 0 mm 5 mps 754 mmHg 58%
    15:00 +25°C° 0 mm 5 mps 753 mmHg 60%
    16:00 +23°C° 0 mm 5 mps 753 mmHg 62%
    17:00 +23°C° 0 mm 4 mps 753 mmHg 64%
    18:00 +21°C° 0 mm 4 mps 753 mmHg 69%
    19:00 +20°C° 0 mm 4 mps 753 mmHg 75%
    20:00 +18°C° 0 mm 4 mps 753 mmHg 81%
    21:00 +17°C° 0 mm 4 mps 753 mmHg 78%
    22:00 +17°C° 0 mm 4 mps 753 mmHg 75%
    23:00 +15°C° 0 mm 5 mps 753 mmHg 73%

    30 August, Friday

    Time Temperature Precipitation Wind Pressure Humidity
    00:00 +15°C° 0 mm 5 mps 753 mmHg 74%
    01:00 +14°C° 0 mm 4 mps 753 mmHg 75%
    02:00 +14°C° 0 mm 4 mps 753 mmHg 77%
    03:00 +13°C° 0 mm 4 mps 753 mmHg 74%
    04:00 +13°C° 0 mm 4 mps 752 mmHg 71%
    05:00 +12°C° 0 mm 4 mps 752 mmHg 69%
    06:00 +13°C° 0 mm 5 mps 752 mmHg 67%
    07:00 +14°C° 0 mm 5 mps 752 mmHg 66%
    08:00 +15°C° 0 mm 5 mps 752 mmHg 64%
    09:00 +16°C° 0 mm 5 mps 752 mmHg 62%
    10:00 +19°C° 0 mm 5 mps 753 mmHg 60%
    11:00 +21°C° 0 mm 5 mps 753 mmHg 58%
    12:00 +22°C° 0 mm 5 mps 752 mmHg 57%
    13:00 +23°C° 0 mm 5 mps 752 mmHg 55%
    14:00 +25°C° 0 mm 5 mps 752 mmHg 54%
    15:00 +25°C° 0 mm 5 mps 752 mmHg 57%
    16:00 +25°C° 0 mm 4 mps 752 mmHg 59%
    17:00 +25°C° 0 mm 3 mps 751 mmHg 62%
    18:00 +22°C° 0 mm 3 mps 751 mmHg 65%
    19:00 +20°C° 0 mm 3 mps 751 mmHg 69%
    20:00 +19°C° 0 mm 3 mps 751 mmHg 72%
    21:00 +18°C° 0 mm 4 mps 751 mmHg 72%
    22:00 +18°C° 0 mm 4 mps 752 mmHg 71%
    23:00 +17°C° 0 mm 4 mps 752 mmHg 71%
    Show more